Weather History for Little Rock AFB, AR

Change the Weather History Date:

Wednesday, September 5, 2012

  Actual Average Record
Temperature  
Mean Temperature 87 °F -  
Max Temperature 100 °F 86 °F 102 °F (1998)
Min Temperature 74 °F 64 °F 51 °F (1997)
Cooling Degree Days 22    
Growing Degree Days 37 (Base 50)    
Moisture  
Dew Point 73 °F    
Average Humidity 67    
Maximum Humidity 95    
Minimum Humidity 35    
Precipitation  
Precipitation 0.00 in - - ()
Sea Level Pressure  
Sea Level Pressure 29.82 in    
Wind  
Wind Speed 3 mph (SSW)    
Max Wind Speed 10 mph    
Max Gust Speed -    
Visibility 10 miles    
Events      
Averages and records for this station are not official NWS values.
T = Trace of Precipitation, MM = Missing Value Source: NWS Daily Summary

Daily Weather History Graph

Daily Weather History Graph

Search for Another Location

Airport:

Trip Planner

Search our weather history database for the weather conditions in past years. The results will help you decide how hot, cold, wet, or windy it might be!

Date:

Astronomy

Sep. 05, 2012 Rise Set
Actual Time 6:44 AM CDT 7:28 PM CDT
Civil Twilight 6:18 AM CDT 7:54 PM CDT
Nautical Twilight 5:48 AM CDT 8:24 PM CDT
Astronomical Twilight 5:17 AM CDT 8:55 PM CDT
Moon 10:14 PM CDT (9/5) 11:34 AM CDT (9/5)
Length of Visible Light 13h 35m
Length of Day
12h 44m
Waning Gibbous, 76% of the Moon is Illuminated
Sep 5
Waning Gibbous
Sep 8
Last Quarter
Sep 15
New
Sep 22
First Quarter
Sep 29
Full

Hourly Weather History & Observations

Time (CDT) Temp. Heat Index Dew Point Humidity Pressure Visibility Wind Dir Wind Speed Gust Speed Precip Events Conditions
12:55 AM 78.3 °F - 75.7 °F 92% 29.83 in 10.0 mi Calm Calm - N/A   Clear
1:55 AM 77.9 °F - 75.4 °F 92% 29.84 in 10.0 mi Calm Calm - N/A   Clear
2:55 AM 77.2 °F - 75.0 °F 93% 29.84 in 10.0 mi Calm Calm - N/A   Clear
3:55 AM 76.1 °F - 74.7 °F 95% 29.83 in 10.0 mi Calm Calm - N/A   Clear
4:55 AM 75.7 °F - 73.2 °F 92% 29.84 in 10.0 mi Calm Calm - N/A   Clear
5:55 AM 75.2 °F - 72.9 °F 92% 29.83 in 10.0 mi Calm Calm - N/A   Clear
6:55 AM 74.1 °F - 72.5 °F 95% 29.84 in 10.0 mi Calm Calm - N/A   Clear
7:55 AM 77.7 °F - 73.8 °F 88% 29.86 in 10.0 mi Calm Calm - N/A   Clear
8:55 AM 85.3 °F 91.8 °F 72.7 °F 66% 29.86 in 10.0 mi SSW 4.6 mph - N/A   Clear
9:55 AM 89.4 °F 97.3 °F 72.7 °F 58% 29.86 in 10.0 mi WSW 6.9 mph - N/A   Clear
10:55 AM 92.3 °F 99.2 °F 71.2 °F 50% 29.85 in 10.0 mi WSW 6.9 mph - N/A   Clear
11:55 AM 94.8 °F 102.1 °F 71.1 °F 46% 29.84 in 10.0 mi Variable 3.5 mph - N/A   Clear
12:55 PM 97.3 °F 104.9 °F 71.1 °F 42% 29.83 in 10.0 mi West 5.8 mph - N/A   Clear
1:55 PM 99.5 °F 105.2 °F 68.0 °F 36% 29.80 in 10.0 mi WSW 6.9 mph - N/A   Clear
2:55 PM 100.4 °F 106.3 °F 68.0 °F 35% 29.78 in 10.0 mi SSW 10.4 mph - N/A   Clear
3:55 PM 99.5 °F 107.4 °F 70.3 °F 39% 29.76 in 10.0 mi South 6.9 mph - N/A   Clear
4:55 PM 98.8 °F 106.6 °F 70.9 °F 40% 29.76 in 10.0 mi South 10.4 mph - N/A   Clear
5:55 PM 97.3 °F 104.9 °F 70.7 °F 42% 29.78 in 10.0 mi South 8.1 mph - N/A   Clear
6:55 PM 93.9 °F 103.4 °F 73.2 °F 51% 29.79 in 10.0 mi SSE 5.8 mph - N/A   Clear
7:55 PM 89.8 °F 98.1 °F 73.2 °F 58% 29.79 in 10.0 mi South 4.6 mph - N/A   Clear
8:55 PM 87.4 °F 94.8 °F 73.0 °F 62% 29.80 in 10.0 mi South 6.9 mph - N/A   Clear
9:55 PM 87.3 °F 95.3 °F 73.8 °F 64% 29.81 in 10.0 mi SSW 4.6 mph - N/A   Clear
10:55 PM 79.5 °F - 74.5 °F 84% 29.82 in 10.0 mi NE 3.5 mph - N/A   Clear
11:55 PM 79.3 °F - 74.5 °F 85% 29.84 in 10.0 mi Calm Calm - N/A   Clear